Terminal Aerodrome Forecast
Issued by NWS

Home | Current Version | Previous Version | Graphics & Text | Print | Product List | Glossary On
Versions: 1 2 3 4 5 6 7 8 9 10 11 12 13 14 15 16 17 18 19 20 21 22 23 24 25 26 27 28 29 30 31 32 33 34 35 36 37 38 39 40 41 42
000
FTUS45 KBOU 270528
TAFAPA
TAF
KAPA 270528Z 2706/2806 VRB05KT P6SM VCSH SCT015 BKN035 BKN060
      TEMPO 2706/2708 4SM BR BKN004 OVC012
     FM270800 20006KT P6SM SCT025 BKN045 BKN080
     FM271000 21005KT P6SM FEW040 SCT080
     FM271400 VRB05KT P6SM FEW200
     FM271900 16006KT P6SM FEW200=

USA.gov is the U.S. government's official web portal to all federal, state and local government web resources and services.